Private Wetterstation Wechselburg
Wetterdaten: Samstag, 26.05.2018
Datum Zeit Temp. +2m Bodentemp. Temp.+5cm Temp. Wind Windchill X Diff Temp. Feuchte +2m Feuchte +5cm Luftdruck Regen Wind Richtung Richtung Sonnenschein Taupunkt Windchill Windben
26.05.2018 00:00 15,3 C 17,7 C 15,0 C 14,7 C 13,5 C 0,0 C 75 % 81 % 1019,9 hPa 0,0 l/m 0,0 km/h (0 Bft) N-NW 337 0 min 10,9 C 13,5 C 0,0 km/h (0 Bft)
26.05.2018 00:05 15,1 C 17,7 C 14,9 C 14,5 C 13,3 C 0,0 C 76 % 82 % 1019,9 hPa 0,0 l/m 0,0 km/h (0 Bft) NW 315 0 min 10,9 C 13,3 C 0,0 km/h (0 Bft)
26.05.2018 00:10 14,9 C 17,7 C 14,8 C 14,3 C 13,2 C 0,0 C 75 % 82 % 1019,9 hPa 0,0 l/m 0,0 km/h (0 Bft) S 180 0 min 10,5 C 13,2 C 0,0 km/h (0 Bft)
26.05.2018 00:15 14,8 C 17,7 C 14,7 C 14,2 C 13,1 C 0,0 C 76 % 82 % 1020,1 hPa 0,0 l/m 0,0 km/h (0 Bft) O-NO 67 0 min 10,6 C 13,1 C 0,0 km/h (0 Bft)
26.05.2018 00:20 14,7 C 17,7 C 14,6 C 14,2 C 13,1 C 0,0 C 77 % 83 % 1020,1 hPa 0,0 l/m 0,0 km/h (0 Bft) N-NW 337 0 min 10,7 C 13,1 C 0,0 km/h (0 Bft)
26.05.2018 00:25 14,6 C 17,7 C 14,5 C 14,1 C 13,0 C 0,0 C 77 % 83 % 1020,1 hPa 0,0 l/m 0,0 km/h (0 Bft) N-NW 337 0 min 10,6 C 13,0 C 0,0 km/h (0 Bft)
26.05.2018 00:30 14,5 C 17,6 C 14,4 C 14,0 C 13,0 C 0,0 C 78 % 83 % 1020,1 hPa 0,0 l/m 0,0 km/h (0 Bft) NO 45 0 min 10,7 C 13,0 C 0,0 km/h (0 Bft)
26.05.2018 00:35 14,5 C 17,7 C 14,3 C 14,0 C 12,9 C 0,0 C 78 % 83 % 1020,1 hPa 0,0 l/m 0,0 km/h (0 Bft) NO 45 0 min 10,7 C 12,9 C 0,0 km/h (0 Bft)
26.05.2018 00:40 14,4 C 17,6 C 14,1 C 13,9 C 12,8 C 0,0 C 79 % 84 % 1020,1 hPa 0,0 l/m 0,0 km/h (0 Bft) N-NO 22 0 min 10,8 C 12,8 C 0,0 km/h (0 Bft)
26.05.2018 00:45 14,3 C 17,6 C 14,1 C 13,8 C 12,8 C 0,0 C 79 % 84 % 1020,1 hPa 0,0 l/m 0,0 km/h (0 Bft) N-NW 337 0 min 10,7 C 12,8 C 0,0 km/h (0 Bft)
26.05.2018 00:50 14,3 C 17,6 C 14,0 C 13,7 C 12,5 C 0,0 C 79 % 84 % 1020,1 hPa 0,0 l/m 0,0 km/h (0 Bft) SW 225 0 min 10,7 C 12,5 C 0,0 km/h (0 Bft)
26.05.2018 00:55 14,1 C 17,6 C 14,0 C 13,5 C 12,3 C 0,0 C 79 % 84 % 1020,0 hPa 0,0 l/m 0,0 km/h (0 Bft) W-SW 247 0 min 10,5 C 12,3 C 0,0 km/h (0 Bft)
26.05.2018 01:00 13,9 C 17,6 C 13,9 C 13,3 C 12,1 C 0,0 C 79 % 84 % 1020,0 hPa 0,0 l/m 0,0 km/h (0 Bft) W 270 0 min 10,3 C 12,1 C 0,0 km/h (0 Bft)
26.05.2018 01:05 13,9 C 17,6 C 13,7 C 13,3 C 12,0 C 0,0 C 80 % 84 % 1020,0 hPa 0,0 l/m 0,0 km/h (0 Bft) NW 315 0 min 10,5 C 12,0 C 0,0 km/h (0 Bft)
26.05.2018 01:10 13,7 C 17,6 C 13,6 C 13,1 C 11,9 C 0,0 C 80 % 85 % 1020,0 hPa 0,0 l/m 0,0 km/h (0 Bft) NO 45 0 min 10,3 C 11,9 C 0,0 km/h (0 Bft)
26.05.2018 01:15 13,6 C 17,6 C 13,6 C 13,1 C 12,0 C 0,0 C 80 % 86 % 1020,1 hPa 0,0 l/m 0,0 km/h (0 Bft) NO 45 0 min 10,2 C 12,0 C 0,0 km/h (0 Bft)
26.05.2018 01:20 13,6 C 17,6 C 13,5 C 13,0 C 11,9 C 0,0 C 81 % 86 % 1020,1 hPa 0,0 l/m 0,0 km/h (0 Bft) O-NO 67 0 min 10,4 C 11,9 C 0,0 km/h (0 Bft)
26.05.2018 01:25 13,4 C 17,5 C 13,3 C 12,8 C 11,7 C 0,0 C 81 % 85 % 1020,1 hPa 0,0 l/m 0,0 km/h (0 Bft) O-NO 67 0 min 10,2 C 11,7 C 0,0 km/h (0 Bft)
26.05.2018 01:30 13,3 C 17,5 C 13,2 C 12,8 C 11,7 C 0,0 C 81 % 86 % 1020,1 hPa 0,0 l/m 0,0 km/h (0 Bft) N-NW 337 0 min 10,1 C 11,7 C 0,0 km/h (0 Bft)
26.05.2018 01:35 13,3 C 17,5 C 13,2 C 12,7 C 11,6 C 0,0 C 82 % 86 % 1020,1 hPa 0,0 l/m 0,0 km/h (0 Bft) NO 45 0 min 10,3 C 11,6 C 0,0 km/h (0 Bft)
26.05.2018 01:40 13,1 C 17,5 C 13,1 C 12,6 C 11,5 C 0,0 C 82 % 86 % 1020,1 hPa 0,0 l/m 0,0 km/h (0 Bft) S-SO 157 0 min 10,1 C 11,5 C 0,0 km/h (0 Bft)
26.05.2018 01:45 13,1 C 17,5 C 13,1 C 12,6 C 11,5 C 0,0 C 82 % 86 % 1020,1 hPa 0,0 l/m 0,0 km/h (0 Bft) S 180 0 min 10,1 C 11,5 C 0,0 km/h (0 Bft)
26.05.2018 01:50 13,0 C 17,5 C 13,0 C 12,4 C 11,3 C 0,0 C 82 % 87 % 1020,1 hPa 0,0 l/m 0,0 km/h (0 Bft) S 180 0 min 10,0 C 11,3 C 0,0 km/h (0 Bft)
26.05.2018 01:55 12,9 C 17,4 C 13,0 C 12,4 C 11,3 C 0,0 C 82 % 87 % 1019,9 hPa 0,0 l/m 0,0 km/h (0 Bft) W-SW 247 0 min 9,9 C 11,3 C 0,0 km/h (0 Bft)
26.05.2018 02:00 12,7 C 17,4 C 12,8 C 12,2 C 11,1 C 0,0 C 82 % 86 % 1019,9 hPa 0,0 l/m 0,0 km/h (0 Bft) NW 315 0 min 9,7 C 11,1 C 0,0 km/h (0 Bft)
26.05.2018 02:05 12,7 C 17,6 C 12,7 C 12,1 C 11,0 C 0,0 C 82 % 86 % 1019,9 hPa 0,0 l/m 0,0 km/h (0 Bft) O-NO 67 0 min 9,7 C 11,0 C 0,0 km/h (0 Bft)
26.05.2018 02:10 12,4 C 17,5 C 12,5 C 11,9 C 11,0 C 0,0 C 83 % 87 % 1019,9 hPa 0,0 l/m 0,3 km/h (0 Bft) N 360 0 min 9,6 C 11,0 C 0,0 km/h (0 Bft)
26.05.2018 02:15 12,4 C 17,6 C 12,5 C 11,9 C 11,0 C 0,0 C 83 % 87 % 1020,3 hPa 0,0 l/m 0,3 km/h (0 Bft) N-NO 22 0 min 9,6 C 11,0 C 0,0 km/h (0 Bft)
26.05.2018 02:20 12,3 C 17,5 C 12,5 C 11,8 C 10,9 C 0,0 C 83 % 87 % 1020,3 hPa 0,0 l/m 0,0 km/h (0 Bft) N-NO 22 0 min 9,5 C 10,9 C 0,0 km/h (0 Bft)
26.05.2018 02:25 12,2 C 17,5 C 12,4 C 11,7 C 10,7 C 0,0 C 83 % 87 % 1020,3 hPa 0,0 l/m 0,0 km/h (0 Bft) W 270 0 min 9,4 C 10,7 C 0,0 km/h (0 Bft)
26.05.2018 02:30 12,1 C 17,5 C 12,3 C 11,6 C 10,7 C 0,0 C 83 % 87 % 1020,3 hPa 0,0 l/m 0,0 km/h (0 Bft) SW 225 0 min 9,3 C 10,7 C 0,0 km/h (0 Bft)
26.05.2018 02:35 12,1 C 17,5 C 12,3 C 11,6 C 10,6 C 0,0 C 83 % 87 % 1020,5 hPa 0,0 l/m 0,0 km/h (0 Bft) W 270 0 min 9,3 C 10,6 C 0,0 km/h (0 Bft)
26.05.2018 02:40 11,9 C 17,6 C 12,1 C 11,4 C 10,5 C 0,0 C 84 % 87 % 1020,5 hPa 0,0 l/m 0,0 km/h (0 Bft) O-NO 67 0 min 9,3 C 10,5 C 0,0 km/h (0 Bft)
26.05.2018 02:45 11,9 C 17,5 C 12,1 C 11,5 C 10,7 C 0,0 C 84 % 87 % 1020,5 hPa 0,0 l/m 0,0 km/h (0 Bft) SO 135 0 min 9,3 C 10,7 C 0,0 km/h (0 Bft)
26.05.2018 02:50 11,8 C 17,5 C 12,3 C 11,4 C 10,6 C 0,0 C 84 % 88 % 1020,5 hPa 0,0 l/m 0,0 km/h (0 Bft) SO 135 0 min 9,2 C 10,6 C 0,0 km/h (0 Bft)
26.05.2018 02:55 11,7 C 17,5 C 12,1 C 11,3 C 10,5 C 0,0 C 84 % 87 % 1020,4 hPa 0,0 l/m 0,0 km/h (0 Bft) SO 135 0 min 9,1 C 10,5 C 0,0 km/h (0 Bft)
26.05.2018 03:00 11,7 C 17,4 C 12,0 C 11,3 C 10,4 C 0,0 C 84 % 87 % 1020,4 hPa 0,0 l/m 0,0 km/h (0 Bft) W-SW 247 0 min 9,1 C 10,4 C 0,0 km/h (0 Bft)
26.05.2018 03:05 11,6 C 17,5 C 12,0 C 11,2 C 10,3 C 0,0 C 84 % 87 % 1020,4 hPa 0,0 l/m 0,0 km/h (0 Bft) SO 135 0 min 9,0 C 10,3 C 0,0 km/h (0 Bft)
26.05.2018 03:10 11,5 C 17,4 C 11,8 C 11,1 C 10,4 C 0,0 C 84 % 87 % 1020,4 hPa 0,0 l/m 0,0 km/h (0 Bft) N-NO 22 0 min 8,9 C 10,4 C 0,0 km/h (0 Bft)
26.05.2018 03:15 11,5 C 17,4 C 11,7 C 11,1 C 10,4 C 0,0 C 84 % 88 % 1020,6 hPa 0,0 l/m 0,0 km/h (0 Bft) N-NO 22 0 min 8,9 C 10,4 C 0,0 km/h (0 Bft)
26.05.2018 03:20 11,3 C 17,5 C 11,7 C 11,0 C 10,4 C 0,0 C 84 % 88 % 1020,6 hPa 0,0 l/m 0,0 km/h (0 Bft) O-NO 67 0 min 8,7 C 10,4 C 0,0 km/h (0 Bft)
26.05.2018 03:25 11,2 C 17,4 C 11,7 C 11,0 C 10,5 C 0,0 C 85 % 88 % 1020,6 hPa 0,0 l/m 0,0 km/h (0 Bft) O-NO 67 0 min 8,8 C 10,5 C 0,0 km/h (0 Bft)
26.05.2018 03:30 11,2 C 17,4 C 11,6 C 11,0 C 10,5 C 0,0 C 85 % 88 % 1020,6 hPa 0,0 l/m 0,0 km/h (0 Bft) O-NO 67 0 min 8,8 C 10,5 C 0,0 km/h (0 Bft)
26.05.2018 03:35 11,2 C 17,4 C 11,6 C 10,9 C 10,4 C 0,0 C 85 % 88 % 1020,6 hPa 0,0 l/m 0,0 km/h (0 Bft) NW 315 0 min 8,8 C 10,4 C 0,0 km/h (0 Bft)
26.05.2018 03:40 11,0 C 17,3 C 11,5 C 10,7 C 10,1 C 0,0 C 85 % 88 % 1020,6 hPa 0,0 l/m 0,0 km/h (0 Bft) W-NW 292 0 min 8,6 C 10,1 C 0,0 km/h (0 Bft)
26.05.2018 03:45 11,1 C 17,3 C 11,5 C 10,7 C 10,0 C 0,0 C 85 % 88 % 1020,6 hPa 0,0 l/m 0,0 km/h (0 Bft) W-NW 292 0 min 8,7 C 10,0 C 0,0 km/h (0 Bft)
26.05.2018 03:50 10,8 C 17,3 C 11,3 C 10,5 C 9,9 C 0,0 C 85 % 88 % 1020,6 hPa 0,0 l/m 0,0 km/h (0 Bft) W-NW 292 0 min 8,4 C 9,9 C 0,0 km/h (0 Bft)
26.05.2018 03:55 10,8 C 17,3 C 11,2 C 10,5 C 9,8 C 0,0 C 85 % 88 % 1020,4 hPa 0,0 l/m 0,0 km/h (0 Bft) NW 315 0 min 8,4 C 9,8 C 0,0 km/h (0 Bft)
26.05.2018 04:00 10,7 C 17,3 C 11,3 C 10,4 C 9,9 C 0,0 C 85 % 88 % 1020,4 hPa 0,0 l/m 0,0 km/h (0 Bft) O-NO 67 0 min 8,3 C 9,9 C 0,0 km/h (0 Bft)
26.05.2018 04:05 10,7 C 17,3 C 11,3 C 10,5 C 10,0 C 0,0 C 85 % 89 % 1020,4 hPa 0,0 l/m 0,6 km/h (0 Bft) O-NO 67 0 min 8,3 C 10,0 C 2,3 km/h (1 Bft)
26.05.2018 04:10 10,5 C 17,3 C 11,2 C 10,4 C 10,1 C 0,0 C 85 % 89 % 1020,4 hPa 0,0 l/m 0,6 km/h (0 Bft) N-NO 22 0 min 8,1 C 10,1 C 0,0 km/h (0 Bft)
26.05.2018 04:15 10,5 C 17,2 C 11,2 C 10,3 C 10,0 C 0,0 C 85 % 89 % 1020,4 hPa 0,0 l/m 0,5 km/h (0 Bft) W-NW 292 0 min 8,1 C 10,0 C 2,7 km/h (1 Bft)
26.05.2018 04:20 10,4 C 17,2 C 11,2 C 10,2 C 9,8 C 0,0 C 86 % 89 % 1020,4 hPa 0,0 l/m 0,0 km/h (0 Bft) SW 225 0 min 8,2 C 9,8 C 0,0 km/h (0 Bft)
26.05.2018 04:25 10,5 C 17,2 C 11,1 C 10,2 C 9,7 C 0,0 C 86 % 89 % 1020,4 hPa 0,0 l/m 0,0 km/h (0 Bft) W 270 0 min 8,3 C 9,7 C 0,0 km/h (0 Bft)
26.05.2018 04:30 10,3 C 17,2 C 11,1 C 10,0 C 9,5 C 0,0 C 86 % 89 % 1020,4 hPa 0,0 l/m 0,0 km/h (0 Bft) W-SW 247 0 min 8,1 C 9,5 C 0,0 km/h (0 Bft)
26.05.2018 04:35 10,2 C 17,2 C 11,1 C 9,9 C 9,4 C 0,0 C 85 % 89 % 1020,6 hPa 0,0 l/m 0,0 km/h (0 Bft) W-SW 247 0 min 7,8 C 9,4 C 0,0 km/h (0 Bft)
26.05.2018 04:40 10,2 C 17,1 C 10,9 C 9,9 C 9,2 C 0,0 C 85 % 89 % 1020,6 hPa 0,0 l/m 0,0 km/h (0 Bft) W-SW 247 0 min 7,8 C 9,2 C 0,0 km/h (0 Bft)
26.05.2018 04:45 10,0 C 17,1 C 10,9 C 9,7 C 9,2 C 0,0 C 85 % 89 % 1020,6 hPa 0,0 l/m 0,0 km/h (0 Bft) W-SW 247 0 min 7,6 C 9,2 C 0,0 km/h (0 Bft)
26.05.2018 04:50 10,0 C 17,1 C 10,7 C 9,7 C 9,2 C 0,0 C 85 % 89 % 1020,6 hPa 0,0 l/m 0,0 km/h (0 Bft) NO 45 0 min 7,6 C 9,2 C 0,0 km/h (0 Bft)
26.05.2018 04:55 9,9 C 17,3 C 10,7 C 9,7 C 9,3 C 0,0 C 85 % 89 % 1020,6 hPa 0,0 l/m 0,0 km/h (0 Bft) O-NO 67 0 min 7,5 C 9,3 C 0,0 km/h (0 Bft)
26.05.2018 05:00 9,9 C 17,2 C 10,7 C 9,7 C 9,4 C 0,0 C 85 % 89 % 1020,6 hPa 0,0 l/m 0,0 km/h (0 Bft) N-NO 22 0 min 7,5 C 9,4 C 0,0 km/h (0 Bft)
26.05.2018 05:05 9,8 C 17,1 C 10,6 C 9,7 C 9,4 C 0,0 C 86 % 89 % 1020,6 hPa 0,0 l/m 0,0 km/h (0 Bft) NW 315 0 min 7,6 C 9,4 C 0,0 km/h (0 Bft)
26.05.2018 05:10 9,8 C 17,2 C 10,6 C 9,7 C 9,4 C 0,0 C 86 % 89 % 1020,6 hPa 0,0 l/m 0,0 km/h (0 Bft) NO 45 0 min 7,6 C 9,4 C 0,0 km/h (0 Bft)
26.05.2018 05:15 9,7 C 17,1 C 10,7 C 9,6 C 9,4 C 0,0 C 86 % 89 % 1020,6 hPa 0,0 l/m 0,0 km/h (0 Bft) NO 45 0 min 7,5 C 9,4 C 0,0 km/h (0 Bft)
26.05.2018 05:20 9,7 C 17,1 C 10,7 C 9,6 C 9,5 C 0,0 C 86 % 89 % 1020,6 hPa 0,0 l/m 0,2 km/h (0 Bft) O-NO 67 0 min 7,5 C 9,5 C 1,8 km/h (1 Bft)
26.05.2018 05:25 9,7 C 17,1 C 10,7 C 9,7 C 9,6 C 0,0 C 86 % 89 % 1020,6 hPa 0,0 l/m 0,2 km/h (0 Bft) O-NO 67 0 min 7,5 C 9,6 C 0,0 km/h (0 Bft)
26.05.2018 05:30 9,6 C 17,0 C 10,8 C 9,7 C 9,7 C 0,1 C 86 % 89 % 1020,6 hPa 0,0 l/m 0,2 km/h (0 Bft) O 90 0 min 7,4 C 9,7 C 0,0 km/h (0 Bft)
26.05.2018 05:35 9,6 C 17,0 C 10,8 C 9,6 C 9,5 C 0,0 C 86 % 89 % 1020,8 hPa 0,0 l/m 0,0 km/h (0 Bft) O-NO 67 0 min 7,4 C 9,5 C 0,0 km/h (0 Bft)
26.05.2018 05:40 9,6 C 17,0 C 10,6 C 9,5 C 9,3 C 0,0 C 86 % 89 % 1020,8 hPa 0,0 l/m 0,0 km/h (0 Bft) S-SW 202 0 min 7,4 C 9,3 C 0,0 km/h (0 Bft)
26.05.2018 05:45 9,5 C 17,0 C 10,7 C 9,4 C 9,2 C 0,0 C 86 % 89 % 1020,8 hPa 0,0 l/m 0,0 km/h (0 Bft) SO 135 0 min 7,3 C 9,2 C 0,0 km/h (0 Bft)
26.05.2018 05:50 9,4 C 17,0 C 10,7 C 9,3 C 9,2 C 0,0 C 86 % 89 % 1020,8 hPa 0,0 l/m 0,0 km/h (0 Bft) S-SW 202 0 min 7,2 C 9,2 C 0,0 km/h (0 Bft)
26.05.2018 05:55 9,5 C 16,9 C 10,7 C 9,4 C 9,3 C 0,0 C 86 % 89 % 1020,9 hPa 0,0 l/m 0,0 km/h (0 Bft) SW 225 0 min 7,3 C 9,3 C 0,0 km/h (0 Bft)
26.05.2018 06:00 9,3 C 16,9 C 10,7 C 9,3 C 9,3 C 0,0 C 86 % 89 % 1020,9 hPa 0,0 l/m 0,0 km/h (0 Bft) NW 315 0 min 7,1 C 9,3 C 0,0 km/h (0 Bft)
26.05.2018 06:05 9,3 C 16,9 C 10,7 C 9,4 C 9,4 C 0,1 C 86 % 89 % 1020,9 hPa 0,0 l/m 0,0 km/h (0 Bft) NW 315 0 min 7,1 C 9,4 C 0,0 km/h (0 Bft)
26.05.2018 06:10 9,2 C 16,9 C 10,7 C 9,4 C 9,4 C 0,2 C 86 % 89 % 1020,9 hPa 0,0 l/m 0,0 km/h (0 Bft) NW 315 0 min 7,0 C 9,4 C 0,0 km/h (0 Bft)
26.05.2018 06:15 9,2 C 16,9 C 10,7 C 9,7 C 9,7 C 0,5 C 86 % 89 % 1020,9 hPa 0,0 l/m 0,0 km/h (0 Bft) NO 45 0 min 7,0 C 9,7 C 0,0 km/h (0 Bft)
26.05.2018 06:20 9,3 C 16,9 C 10,9 C 10,0 C 10,0 C 0,7 C 86 % 89 % 1020,9 hPa 0,0 l/m 0,0 km/h (0 Bft) NO 45 0 min 7,1 C 10,0 C 0,0 km/h (0 Bft)
26.05.2018 06:25 9,3 C 16,8 C 11,1 C 10,1 C 10,1 C 0,8 C 86 % 89 % 1020,9 hPa 0,0 l/m 0,0 km/h (0 Bft) NO 45 0 min 7,1 C 10,1 C 0,0 km/h (0 Bft)
26.05.2018 06:30 9,4 C 16,8 C 11,3 C 10,3 C 10,3 C 0,9 C 87 % 89 % 1020,9 hPa 0,0 l/m 0,0 km/h (0 Bft) SW 225 0 min 7,3 C 10,3 C 0,0 km/h (0 Bft)
26.05.2018 06:35 9,5 C 16,8 C 11,2 C 10,4 C 10,4 C 0,9 C 86 % 89 % 1021,2 hPa 0,0 l/m 0,0 km/h (0 Bft) SW 225 0 min 7,3 C 10,4 C 0,0 km/h (0 Bft)
26.05.2018 06:40 9,5 C 16,8 C 11,5 C 10,5 C 10,5 C 1,0 C 87 % 89 % 1021,2 hPa 0,0 l/m 0,0 km/h (0 Bft) W-SW 247 0 min 7,4 C 10,5 C 0,0 km/h (0 Bft)
26.05.2018 06:45 9,4 C 16,7 C 11,6 C 10,6 C 10,6 C 1,2 C 87 % 89 % 1021,2 hPa 0,0 l/m 0,0 km/h (0 Bft) W-SW 247 0 min 7,3 C 10,6 C 0,0 km/h (0 Bft)
26.05.2018 06:50 9,5 C 16,7 C 11,9 C 10,8 C 10,8 C 1,3 C 87 % 89 % 1021,2 hPa 0,0 l/m 0,0 km/h (0 Bft) S 180 0 min 7,4 C 10,8 C 0,0 km/h (0 Bft)
26.05.2018 06:55 9,6 C 16,7 C 12,0 C 10,9 C 10,9 C 1,3 C 87 % 89 % 1021,1 hPa 0,0 l/m 0,0 km/h (0 Bft) N-NO 22 0 min 7,5 C 10,9 C 0,0 km/h (0 Bft)
26.05.2018 07:00 9,6 C 16,7 C 12,3 C 12,8 C 12,8 C 3,2 C 87 % 89 % 1021,1 hPa 0,0 l/m 0,0 km/h (0 Bft) S 180 5 min 7,5 C 12,8 C 0,0 km/h (0 Bft)
26.05.2018 07:05 9,7 C 16,7 C 12,4 C 14,9 C 14,9 C 5,2 C 87 % 89 % 1021,1 hPa 0,0 l/m 0,0 km/h (0 Bft) S-SO 157 5 min 7,6 C 14,9 C 0,0 km/h (0 Bft)
26.05.2018 07:10 10,1 C 16,7 C 12,7 C 17,6 C 17,6 C 7,5 C 87 % 89 % 1021,1 hPa 0,0 l/m 0,0 km/h (0 Bft) W-SW 247 5 min 8,0 C 17,6 C 0,0 km/h (0 Bft)
26.05.2018 07:15 10,4 C 16,6 C 12,8 C 19,0 C 19,0 C 8,6 C 87 % 89 % 1021,6 hPa 0,0 l/m 0,0 km/h (0 Bft) S 180 5 min 8,3 C 19,0 C 0,0 km/h (0 Bft)
26.05.2018 07:20 10,9 C 16,6 C 13,3 C 20,7 C 20,7 C 9,8 C 88 % 88 % 1021,6 hPa 0,0 l/m 0,0 km/h (0 Bft) W-SW 247 5 min 9,0 C 20,7 C 0,0 km/h (0 Bft)
26.05.2018 07:25 11,1 C 16,6 C 13,4 C 21,7 C 21,7 C 10,6 C 88 % 88 % 1021,6 hPa 0,0 l/m 0,0 km/h (0 Bft) SW 225 5 min 9,2 C 21,7 C 0,0 km/h (0 Bft)
26.05.2018 07:30 11,6 C 16,6 C 13,6 C 23,1 C 23,1 C 11,5 C 88 % 89 % 1021,6 hPa 0,0 l/m 0,0 km/h (0 Bft) S 180 5 min 9,7 C 23,1 C 0,0 km/h (0 Bft)
26.05.2018 07:35 11,9 C 16,6 C 13,8 C 24,0 C 24,0 C 12,1 C 88 % 88 % 1021,4 hPa 0,0 l/m 0,0 km/h (0 Bft) S 180 5 min 10,0 C 24,0 C 0,0 km/h (0 Bft)
26.05.2018 07:40 12,3 C 16,5 C 14,0 C 25,0 C 25,0 C 12,7 C 87 % 88 % 1021,4 hPa 0,0 l/m 0,0 km/h (0 Bft) S 180 5 min 10,2 C 25,0 C 0,0 km/h (0 Bft)
26.05.2018 07:45 12,6 C 16,5 C 14,1 C 25,6 C 25,6 C 13,0 C 88 % 88 % 1021,4 hPa 0,0 l/m 0,0 km/h (0 Bft) S-SW 202 5 min 10,7 C 25,6 C 0,0 km/h (0 Bft)
26.05.2018 07:50 13,1 C 16,5 C 14,3 C 26,1 C 26,1 C 13,0 C 87 % 88 % 1021,4 hPa 0,0 l/m 0,0 km/h (0 Bft) W-SW 247 5 min 11,0 C 26,1 C 1,6 km/h (1 Bft)
26.05.2018 07:55 13,3 C 16,5 C 14,5 C 26,4 C 26,4 C 13,1 C 87 % 88 % 1021,6 hPa 0,0 l/m 0,0 km/h (0 Bft) W-SW 247 5 min 11,2 C 26,4 C 0,0 km/h (0 Bft)
26.05.2018 08:00 13,9 C 16,5 C 14,6 C 27,1 C 27,1 C 13,2 C 86 % 88 % 1021,6 hPa 0,0 l/m 0,0 km/h (0 Bft) S-SO 157 5 min 11,6 C 27,1 C 0,0 km/h (0 Bft)
26.05.2018 08:05 14,3 C 16,4 C 14,8 C 27,5 C 27,5 C 13,2 C 86 % 88 % 1021,6 hPa 0,0 l/m 0,0 km/h (0 Bft) SW 225 5 min 12,0 C 27,5 C 0,0 km/h (0 Bft)
26.05.2018 08:10 15,0 C 16,4 C 15,0 C 28,3 C 28,3 C 13,3 C 86 % 87 % 1021,6 hPa 0,0 l/m 0,0 km/h (0 Bft) W-SW 247 5 min 12,7 C 28,3 C 0,0 km/h (0 Bft)
26.05.2018 08:15 15,6 C 16,4 C 15,1 C 28,6 C 28,6 C 13,0 C 85 % 87 % 1021,9 hPa 0,0 l/m 0,0 km/h (0 Bft) SW 225 5 min 13,1 C 28,6 C 0,0 km/h (0 Bft)
26.05.2018 08:20 16,4 C 16,4 C 15,3 C 28,7 C 28,7 C 12,3 C 85 % 87 % 1021,9 hPa 0,0 l/m 0,0 km/h (0 Bft) SW 225 5 min 13,9 C 28,7 C 0,0 km/h (0 Bft)
26.05.2018 08:25 17,0 C 16,4 C 15,5 C 29,1 C 29,1 C 12,1 C 84 % 87 % 1021,9 hPa 0,0 l/m 0,0 km/h (0 Bft) W-SW 247 5 min 14,3 C 29,1 C 0,0 km/h (0 Bft)
26.05.2018 08:30 17,6 C 16,4 C 15,6 C 29,7 C 29,7 C 12,1 C 83 % 87 % 1021,9 hPa 0,0 l/m 0,0 km/h (0 Bft) W-SW 247 5 min 14,7 C 29,7 C 0,0 km/h (0 Bft)
26.05.2018 08:35 17,9 C 16,4 C 15,8 C 30,1 C 30,1 C 12,2 C 81 % 87 % 1021,8 hPa 0,0 l/m 0,0 km/h (0 Bft) S 180 5 min 14,6 C 30,1 C 0,0 km/h (0 Bft)
26.05.2018 08:40 18,3 C 16,4 C 16,1 C 30,6 C 30,6 C 12,3 C 79 % 87 % 1021,8 hPa 0,0 l/m 0,0 km/h (0 Bft) SW 225 5 min 14,6 C 30,6 C 0,0 km/h (0 Bft)
26.05.2018 08:45 18,7 C 16,4 C 16,0 C 30,9 C 30,9 C 12,2 C 78 % 86 % 1021,8 hPa 0,0 l/m 0,2 km/h (0 Bft) S 180 5 min 14,8 C 30,9 C 2,6 km/h (1 Bft)
26.05.2018 08:50 18,9 C 16,4 C 16,4 C 30,6 C 30,6 C 11,7 C 77 % 86 % 1021,8 hPa 0,0 l/m 0,5 km/h (0 Bft) S-SO 157 5 min 14,8 C 30,6 C 2,4 km/h (1 Bft)
26.05.2018 08:55 19,2 C 16,4 C 16,5 C 30,6 C 30,6 C 11,4 C 76 % 86 % 1022,0 hPa 0,0 l/m 0,5 km/h (0 Bft) S 180 5 min 14,9 C 30,6 C 0,0 km/h (0 Bft)
26.05.2018 09:00 19,8 C 16,4 C 16,7 C 31,3 C 31,3 C 11,5 C 76 % 86 % 1022,0 hPa 0,0 l/m 0,3 km/h (0 Bft) W 270 5 min 15,4 C 31,3 C 0,0 km/h (0 Bft)
26.05.2018 09:05 20,4 C 16,4 C 16,9 C 31,2 C 31,2 C 10,8 C 74 % 86 % 1022,0 hPa 0,0 l/m 0,2 km/h (0 Bft) S-SO 157 5 min 15,6 C 31,2 C 1,9 km/h (1 Bft)
26.05.2018 09:10 20,4 C 16,4 C 17,1 C 31,2 C 31,2 C 10,8 C 73 % 86 % 1022,0 hPa 0,0 l/m 0,5 km/h (0 Bft) S 180 5 min 15,4 C 31,2 C 0,0 km/h (0 Bft)
26.05.2018 09:15 20,7 C 16,3 C 17,2 C 31,6 C 31,6 C 10,9 C 72 % 85 % 1022,1 hPa 0,0 l/m 0,5 km/h (0 Bft) S-SO 157 5 min 15,5 C 31,6 C 0,0 km/h (0 Bft)
26.05.2018 09:20 20,9 C 16,3 C 17,5 C 31,4 C 31,4 C 10,5 C 71 % 85 % 1022,1 hPa 0,0 l/m 0,2 km/h (0 Bft) SW 225 5 min 15,4 C 31,4 C 0,0 km/h (0 Bft)
26.05.2018 09:25 20,8 C 16,3 C 17,7 C 29,8 C 29,8 C 9,0 C 71 % 85 % 1022,1 hPa 0,0 l/m 0,3 km/h (0 Bft) SW 225 5 min 15,3 C 29,8 C 0,0 km/h (0 Bft)
26.05.2018 09:30 20,9 C 16,3 C 17,9 C 29,4 C 29,4 C 8,5 C 70 % 84 % 1022,1 hPa 0,0 l/m 0,2 km/h (0 Bft) W-NW 292 5 min 15,2 C 29,4 C 0,0 km/h (0 Bft)
26.05.2018 09:35 21,0 C 16,3 C 18,1 C 28,3 C 28,3 C 7,3 C 70 % 83 % 1021,9 hPa 0,0 l/m 0,2 km/h (0 Bft) W-SW 247 5 min 15,3 C 28,3 C 2,9 km/h (1 Bft)
26.05.2018 09:40 21,0 C 16,3 C 18,5 C 26,2 C 26,2 C 5,2 C 70 % 82 % 1021,9 hPa 0,0 l/m 0,6 km/h (0 Bft) S 180 5 min 15,3 C 26,2 C 0,0 km/h (0 Bft)
26.05.2018 09:45 21,1 C 16,3 C 18,7 C 25,8 C 25,8 C 4,7 C 69 % 82 % 1021,9 hPa 0,0 l/m 0,6 km/h (0 Bft) S 180 5 min 15,2 C 25,8 C 4,3 km/h (1 Bft)
26.05.2018 09:50 21,2 C 16,3 C 18,7 C 24,9 C 24,9 C 3,7 C 67 % 80 % 1021,9 hPa 0,0 l/m 0,3 km/h (0 Bft) S 180 5 min 14,8 C 24,9 C 0,0 km/h (0 Bft)
26.05.2018 09:55 21,2 C 16,4 C 18,8 C 24,6 C 24,6 C 3,4 C 67 % 81 % 1021,8 hPa 0,0 l/m 0,3 km/h (0 Bft) W-SW 247 5 min 14,8 C 24,6 C 0,0 km/h (0 Bft)
26.05.2018 10:00 21,2 C 16,4 C 18,9 C 24,2 C 24,2 C 3,0 C 67 % 80 % 1021,8 hPa 0,0 l/m 0,3 km/h (0 Bft) NO 45 0 min 14,8 C 24,2 C 3,5 km/h (1 Bft)
26.05.2018 10:05 21,3 C 16,4 C 19,1 C 23,9 C 23,9 C 2,6 C 67 % 80 % 1021,8 hPa 0,0 l/m 0,6 km/h (0 Bft) N-NW 337 0 min 14,9 C 23,9 C 0,0 km/h (0 Bft)
26.05.2018 10:10 21,4 C 16,4 C 19,6 C 23,9 C 23,9 C 2,5 C 67 % 79 % 1021,8 hPa 0,0 l/m 1,6 km/h (1 Bft) NW 315 0 min 15,0 C 23,9 C 0,0 km/h (0 Bft)
26.05.2018 10:15 21,5 C 16,4 C 19,9 C 25,9 C 25,9 C 4,4 C 68 % 79 % 1021,8 hPa 0,0 l/m 1,3 km/h (1 Bft) SW 225 5 min 15,3 C 25,9 C 5,1 km/h (1 Bft)
26.05.2018 10:20 21,8 C 16,4 C 20,1 C 28,9 C 28,9 C 7,1 C 67 % 77 % 1021,8 hPa 0,0 l/m 0,3 km/h (0 Bft) NW 315 5 min 15,4 C 28,9 C 1,8 km/h (1 Bft)
26.05.2018 10:25 21,9 C 16,4 C 20,4 C 29,5 C 29,5 C 7,6 C 67 % 75 % 1021,8 hPa 0,0 l/m 1,0 km/h (0 Bft) O-SO 112 5 min 15,5 C 29,5 C 2,1 km/h (1 Bft)
26.05.2018 10:30 22,1 C 16,5 C 20,6 C 30,0 C 30,0 C 7,9 C 65 % 74 % 1021,8 hPa 0,0 l/m 1,6 km/h (1 Bft) O-NO 67 5 min 15,2 C 30,0 C 3,7 km/h (1 Bft)
26.05.2018 10:35 22,5 C 16,4 C 20,9 C 29,9 C 29,9 C 7,4 C 64 % 72 % 1021,9 hPa 0,0 l/m 1,6 km/h (1 Bft) O-NO 67 5 min 15,3 C 29,9 C 4,2 km/h (1 Bft)
26.05.2018 10:40 22,5 C 16,4 C 21,1 C 29,5 C 29,5 C 7,0 C 64 % 72 % 1021,9 hPa 0,0 l/m 1,8 km/h (1 Bft) O-SO 112 5 min 15,3 C 29,5 C 2,1 km/h (1 Bft)
26.05.2018 10:45 22,5 C 16,4 C 21,1 C 30,0 C 30,0 C 7,5 C 64 % 72 % 1021,9 hPa 0,0 l/m 2,3 km/h (1 Bft) NW 315 5 min 15,3 C 30,0 C 2,9 km/h (1 Bft)
26.05.2018 10:50 22,5 C 16,4 C 21,3 C 29,9 C 29,9 C 7,4 C 62 % 68 % 1021,9 hPa 0,0 l/m 2,1 km/h (1 Bft) O-NO 67 5 min 14,8 C 29,9 C 2,7 km/h (1 Bft)
26.05.2018 10:55 22,6 C 16,4 C 21,6 C 29,8 C 29,8 C 7,2 C 62 % 67 % 1021,9 hPa 0,0 l/m 2,4 km/h (1 Bft) O-SO 112 5 min 14,9 C 29,8 C 3,9 km/h (1 Bft)
26.05.2018 11:00 22,9 C 16,4 C 21,6 C 30,1 C 30,1 C 7,2 C 61 % 67 % 1021,9 hPa 0,0 l/m 2,1 km/h (1 Bft) N-NO 22 5 min 15,0 C 30,1 C 2,9 km/h (1 Bft)
26.05.2018 11:05 23,0 C 16,5 C 21,7 C 30,3 C 30,3 C 7,3 C 61 % 68 % 1021,9 hPa 0,0 l/m 1,8 km/h (1 Bft) W 270 5 min 15,1 C 30,3 C 3,4 km/h (1 Bft)
26.05.2018 11:10 23,2 C 16,5 C 21,9 C 30,7 C 30,7 C 7,5 C 62 % 68 % 1021,9 hPa 0,0 l/m 1,9 km/h (1 Bft) W 270 5 min 15,5 C 30,7 C 4,0 km/h (1 Bft)
26.05.2018 11:15 23,2 C 16,5 C 22,1 C 29,7 C 29,7 C 6,5 C 61 % 68 % 1021,9 hPa 0,0 l/m 2,7 km/h (1 Bft) O-SO 112 5 min 15,3 C 29,7 C 6,0 km/h (2 Bft)
26.05.2018 11:20 23,3 C 16,5 C 22,4 C 27,9 C 27,9 C 4,6 C 60 % 67 % 1021,9 hPa 0,0 l/m 3,1 km/h (1 Bft) W 270 5 min 15,1 C 27,9 C 4,2 km/h (1 Bft)
26.05.2018 11:25 23,5 C 16,5 C 22,5 C 27,1 C 27,1 C 3,6 C 62 % 67 % 1021,9 hPa 0,0 l/m 2,9 km/h (1 Bft) W-NW 292 5 min 15,8 C 27,1 C 7,6 km/h (2 Bft)
26.05.2018 11:30 23,4 C 16,6 C 22,6 C 26,9 C 26,9 C 3,5 C 59 % 66 % 1021,9 hPa 0,0 l/m 3,1 km/h (1 Bft) O-NO 67 5 min 14,9 C 26,9 C 5,0 km/h (1 Bft)
26.05.2018 11:35 23,6 C 16,6 C 22,9 C 27,6 C 27,6 C 4,0 C 56 % 60 % 1021,6 hPa 0,0 l/m 4,7 km/h (1 Bft) O-NO 67 5 min 14,3 C 27,6 C 8,9 km/h (2 Bft)
26.05.2018 11:40 23,7 C 16,5 C 23,1 C 27,7 C 27,7 C 4,0 C 55 % 61 % 1021,6 hPa 0,0 l/m 5,8 km/h (2 Bft) NO 45 5 min 14,1 C 27,7 C 4,8 km/h (1 Bft)
26.05.2018 11:45 23,7 C 16,5 C 23,2 C 28,5 C 28,5 C 4,8 C 55 % 60 % 1021,6 hPa 0,0 l/m 5,0 km/h (1 Bft) W 270 5 min 14,1 C 28,5 C 11,9 km/h (2 Bft)
26.05.2018 11:50 24,1 C 16,5 C 23,3 C 30,0 C 30,0 C 5,9 C 57 % 61 % 1021,6 hPa 0,0 l/m 2,7 km/h (1 Bft) O-NO 67 5 min 15,0 C 30,0 C 6,0 km/h (2 Bft)
26.05.2018 11:55 24,1 C 16,5 C 23,7 C 30,0 C 30,0 C 5,9 C 55 % 59 % 1021,6 hPa 0,0 l/m 2,6 km/h (1 Bft) O 90 5 min 14,5 C 30,0 C 2,9 km/h (1 Bft)
26.05.2018 12:00 24,2 C 16,6 C 23,6 C 30,4 C 30,4 C 6,2 C 54 % 58 % 1021,6 hPa 0,0 l/m 3,2 km/h (1 Bft) O-NO 67 5 min 14,3 C 30,4 C 3,4 km/h (1 Bft)
26.05.2018 12:05 24,3 C 16,6 C 23,7 C 30,3 C 30,3 C 6,0 C 54 % 58 % 1021,6 hPa 0,0 l/m 3,2 km/h (1 Bft) O-NO 67 5 min 14,4 C 30,3 C 8,2 km/h (2 Bft)
26.05.2018 12:10 24,2 C 16,6 C 24,2 C 29,9 C 29,9 C 5,7 C 54 % 57 % 1021,6 hPa 0,0 l/m 3,7 km/h (1 Bft) O-NO 67 5 min 14,3 C 29,9 C 2,3 km/h (1 Bft)
26.05.2018 12:15 24,4 C 16,6 C 24,2 C 30,2 C 30,2 C 5,8 C 54 % 57 % 1021,4 hPa 0,0 l/m 2,9 km/h (1 Bft) N-NO 22 5 min 14,5 C 30,2 C 0,0 km/h (0 Bft)
26.05.2018 12:20 24,9 C 16,6 C 24,4 C 30,9 C 30,9 C 6,0 C 54 % 56 % 1021,4 hPa 0,0 l/m 2,1 km/h (1 Bft) W-SW 247 5 min 14,9 C 30,9 C 0,0 km/h (0 Bft)
26.05.2018 12:25 25,1 C 16,7 C 24,3 C 31,1 C 31,1 C 6,0 C 52 % 57 % 1021,4 hPa 0,0 l/m 2,9 km/h (1 Bft) N-NO 22 5 min 14,5 C 31,1 C 6,9 km/h (2 Bft)
26.05.2018 12:30 24,8 C 16,7 C 24,2 C 29,4 C 29,4 C 4,6 C 53 % 56 % 1021,4 hPa 0,0 l/m 3,7 km/h (1 Bft) W 270 5 min 14,6 C 29,4 C 1,9 km/h (1 Bft)
26.05.2018 12:35 25,2 C 16,7 C 24,3 C 29,9 C 29,9 C 4,7 C 52 % 56 % 1021,3 hPa 0,0 l/m 3,2 km/h (1 Bft) O 90 5 min 14,6 C 29,9 C 1,6 km/h (1 Bft)
26.05.2018 12:40 25,1 C 16,7 C 23,9 C 28,2 C 28,2 C 3,1 C 51 % 56 % 1021,3 hPa 0,0 l/m 1,9 km/h (1 Bft) NO 45 0 min 14,2 C 28,2 C 3,2 km/h (1 Bft)
26.05.2018 12:45 24,8 C 16,7 C 24,0 C 28,2 C 28,2 C 3,4 C 52 % 57 % 1021,3 hPa 0,0 l/m 2,1 km/h (1 Bft) NW 315 5 min 14,3 C 28,2 C 3,9 km/h (1 Bft)
26.05.2018 12:50 25,4 C 16,7 C 24,5 C 30,0 C 30,0 C 4,6 C 52 % 57 % 1021,3 hPa 0,0 l/m 2,7 km/h (1 Bft) W-NW 292 5 min 14,8 C 30,0 C 4,8 km/h (1 Bft)
26.05.2018 12:55 25,7 C 16,7 C 24,9 C 30,8 C 30,8 C 5,1 C 50 % 55 % 1021,6 hPa 0,0 l/m 3,4 km/h (1 Bft) W-SW 247 5 min 14,5 C 30,8 C 7,6 km/h (2 Bft)
26.05.2018 13:00 26,1 C 16,8 C 25,1 C 31,6 C 31,6 C 5,5 C 50 % 54 % 1021,6 hPa 0,0 l/m 3,2 km/h (1 Bft) NO 45 5 min 14,8 C 31,6 C 2,4 km/h (1 Bft)
26.05.2018 13:05 26,3 C 16,8 C 25,1 C 31,6 C 31,6 C 5,3 C 49 % 54 % 1021,6 hPa 0,0 l/m 2,1 km/h (1 Bft) O-NO 67 5 min 14,7 C 31,6 C 1,6 km/h (1 Bft)
26.05.2018 13:10 26,1 C 16,8 C 25,2 C 30,8 C 30,8 C 4,7 C 48 % 53 % 1021,6 hPa 0,0 l/m 2,6 km/h (1 Bft) NO 45 5 min 14,2 C 30,8 C 4,8 km/h (1 Bft)
26.05.2018 13:15 26,2 C 16,8 C 25,7 C 30,9 C 30,9 C 4,7 C 48 % 52 % 1021,5 hPa 0,0 l/m 3,1 km/h (1 Bft) O-SO 112 5 min 14,3 C 30,9 C 0,0 km/h (0 Bft)
26.05.2018 13:20 26,4 C 16,9 C 25,6 C 31,6 C 31,6 C 5,2 C 48 % 52 % 1021,5 hPa 0,0 l/m 2,9 km/h (1 Bft) NO 45 5 min 14,5 C 31,6 C 4,7 km/h (1 Bft)
26.05.2018 13:25 26,4 C 16,9 C 25,5 C 31,4 C 31,4 C 5,0 C 48 % 52 % 1021,5 hPa 0,0 l/m 3,1 km/h (1 Bft) O-NO 67 5 min 14,5 C 31,4 C 2,7 km/h (1 Bft)
26.05.2018 13:30 26,7 C 16,9 C 25,5 C 31,8 C 31,8 C 5,1 C 47 % 51 % 1021,5 hPa 0,0 l/m 2,7 km/h (1 Bft) O-SO 112 5 min 14,4 C 31,8 C 2,6 km/h (1 Bft)
26.05.2018 13:35 27,0 C 16,9 C 25,5 C 32,2 C 32,2 C 5,2 C 46 % 50 % 1021,4 hPa 0,0 l/m 2,3 km/h (1 Bft) O 90 5 min 14,4 C 32,2 C 6,8 km/h (2 Bft)
26.05.2018 13:40 26,7 C 16,9 C 25,5 C 31,6 C 31,6 C 4,9 C 44 % 50 % 1021,4 hPa 0,0 l/m 3,2 km/h (1 Bft) O-NO 67 5 min 13,4 C 31,6 C 2,9 km/h (1 Bft)
26.05.2018 13:45 26,7 C 16,9 C 25,6 C 31,6 C 31,6 C 4,9 C 46 % 50 % 1021,4 hPa 0,0 l/m 3,5 km/h (1 Bft) O 90 5 min 14,1 C 31,6 C 2,6 km/h (1 Bft)
26.05.2018 13:50 26,7 C 17,0 C 26,7 C 31,6 C 31,6 C 4,9 C 45 % 49 % 1021,4 hPa 0,0 l/m 3,2 km/h (1 Bft) NO 45 5 min 13,8 C 31,6 C 5,6 km/h (1 Bft)
26.05.2018 13:55 26,4 C 17,0 C 27,1 C 31,4 C 31,4 C 5,0 C 46 % 48 % 1021,4 hPa 0,0 l/m 3,7 km/h (1 Bft) O-NO 67 5 min 13,8 C 31,4 C 2,9 km/h (1 Bft)
26.05.2018 14:00 26,6 C 17,0 C 27,5 C 31,8 C 31,8 C 5,2 C 43 % 45 % 1021,4 hPa 0,0 l/m 3,5 km/h (1 Bft) O 90 5 min 13,0 C 31,8 C 4,0 km/h (1 Bft)
26.05.2018 14:05 26,7 C 17,0 C 27,7 C 32,0 C 32,0 C 5,3 C 43 % 44 % 1021,4 hPa 0,0 l/m 2,6 km/h (1 Bft) O-NO 67 5 min 13,1 C 32,0 C 3,5 km/h (1 Bft)
26.05.2018 14:10 26,6 C 17,0 C 27,5 C 32,0 C 32,0 C 5,4 C 43 % 45 % 1021,4 hPa 0,0 l/m 3,2 km/h (1 Bft) NW 315 5 min 13,0 C 32,0 C 2,6 km/h (1 Bft)
26.05.2018 14:15 26,8 C 17,1 C 27,0 C 32,1 C 32,1 C 5,3 C 43 % 44 % 1021,4 hPa 0,0 l/m 3,2 km/h (1 Bft) O-NO 67 5 min 13,2 C 32,1 C 1,8 km/h (1 Bft)
26.05.2018 14:20 27,1 C 17,1 C 26,8 C 32,7 C 32,7 C 5,6 C 42 % 46 % 1021,4 hPa 0,0 l/m 2,3 km/h (1 Bft) NO 45 5 min 13,1 C 32,7 C 9,0 km/h (2 Bft)
26.05.2018 14:25 26,8 C 17,1 C 26,7 C 32,1 C 32,1 C 5,3 C 41 % 44 % 1021,4 hPa 0,0 l/m 3,1 km/h (1 Bft) O-NO 67 5 min 12,4 C 32,1 C 4,8 km/h (1 Bft)
26.05.2018 14:30 26,9 C 17,1 C 26,7 C 32,8 C 32,8 C 5,9 C 42 % 47 % 1021,4 hPa 0,0 l/m 2,6 km/h (1 Bft) SW 225 5 min 12,9 C 32,8 C 1,8 km/h (1 Bft)
26.05.2018 14:35 27,2 C 17,1 C 26,7 C 33,3 C 33,3 C 6,1 C 42 % 46 % 1021,1 hPa 0,0 l/m 1,4 km/h (1 Bft) SO 135 5 min 13,2 C 33,3 C 2,3 km/h (1 Bft)
26.05.2018 14:40 27,1 C 17,2 C 26,5 C 32,9 C 32,9 C 5,8 C 41 % 46 % 1021,1 hPa 0,0 l/m 2,6 km/h (1 Bft) NO 45 5 min 12,7 C 32,9 C 4,8 km/h (1 Bft)
26.05.2018 14:45 27,1 C 17,2 C 26,6 C 32,8 C 32,8 C 5,7 C 41 % 46 % 1021,1 hPa 0,0 l/m 3,1 km/h (1 Bft) O-NO 67 5 min 12,7 C 32,8 C 2,3 km/h (1 Bft)
26.05.2018 14:50 26,9 C 17,2 C 26,5 C 32,9 C 32,9 C 6,0 C 41 % 47 % 1021,1 hPa 0,0 l/m 2,4 km/h (1 Bft) N-NO 22 5 min 12,5 C 32,9 C 3,7 km/h (1 Bft)
26.05.2018 14:55 27,0 C 17,2 C 26,4 C 32,9 C 32,9 C 5,9 C 42 % 46 % 1021,1 hPa 0,0 l/m 2,1 km/h (1 Bft) O-NO 67 5 min 13,0 C 32,9 C 3,5 km/h (1 Bft)
26.05.2018 15:00 27,1 C 17,2 C 26,5 C 33,3 C 33,3 C 6,2 C 43 % 47 % 1021,1 hPa 0,0 l/m 2,1 km/h (1 Bft) O-NO 67 5 min 13,4 C 33,3 C 1,9 km/h (1 Bft)
26.05.2018 15:05 27,2 C 17,2 C 26,5 C 33,6 C 33,6 C 6,4 C 43 % 47 % 1021,1 hPa 0,0 l/m 2,4 km/h (1 Bft) S 180 5 min 13,5 C 33,6 C 4,7 km/h (1 Bft)
26.05.2018 15:10 27,2 C 17,3 C 26,6 C 33,4 C 33,4 C 6,2 C 42 % 46 % 1021,1 hPa 0,0 l/m 3,1 km/h (1 Bft) O-NO 67 5 min 13,2 C 33,4 C 2,9 km/h (1 Bft)
26.05.2018 15:15 27,1 C 17,3 C 26,7 C 33,1 C 33,1 C 6,0 C 42 % 46 % 1020,8 hPa 0,0 l/m 3,1 km/h (1 Bft) O-NO 67 5 min 13,1 C 33,1 C 2,7 km/h (1 Bft)
26.05.2018 15:20 26,9 C 17,3 C 26,4 C 32,8 C 32,8 C 5,9 C 41 % 46 % 1020,8 hPa 0,0 l/m 3,1 km/h (1 Bft) O-NO 67 5 min 12,5 C 32,8 C 4,0 km/h (1 Bft)
26.05.2018 15:25 26,9 C 17,3 C 26,6 C 32,8 C 32,8 C 5,9 C 41 % 46 % 1020,8 hPa 0,0 l/m 2,7 km/h (1 Bft) O-SO 112 5 min 12,5 C 32,8 C 0,0 km/h (0 Bft)
26.05.2018 15:30 27,1 C 17,3 C 26,6 C 33,6 C 33,6 C 6,5 C 41 % 47 % 1020,8 hPa 0,0 l/m 1,3 km/h (1 Bft) S 180 5 min 12,7 C 33,6 C 0,0 km/h (0 Bft)
26.05.2018 15:35 27,4 C 17,3 C 26,7 C 33,9 C 33,9 C 6,5 C 41 % 45 % 1021,1 hPa 0,0 l/m 1,0 km/h (0 Bft) O-NO 67 5 min 13,0 C 33,9 C 2,1 km/h (1 Bft)
26.05.2018 15:40 27,3 C 17,4 C 26,7 C 34,1 C 34,1 C 6,8 C 41 % 46 % 1021,1 hPa 0,0 l/m 1,6 km/h (1 Bft) S 180 5 min 12,9 C 34,1 C 1,6 km/h (1 Bft)
26.05.2018 15:45 27,2 C 17,4 C 26,8 C 34,3 C 34,3 C 7,1 C 41 % 45 % 1021,1 hPa 0,0 l/m 1,6 km/h (1 Bft) S 180 5 min 12,8 C 34,3 C 1,8 km/h (1 Bft)
26.05.2018 15:50 27,0 C 17,4 C 26,8 C 33,4 C 33,4 C 6,4 C 41 % 45 % 1021,1 hPa 0,0 l/m 3,1 km/h (1 Bft) NO 45 5 min 12,6 C 33,4 C 5,0 km/h (1 Bft)
26.05.2018 15:55 26,8 C 17,4 C 26,8 C 32,9 C 32,9 C 6,1 C 41 % 46 % 1020,9 hPa 0,0 l/m 3,9 km/h (1 Bft) NO 45 5 min 12,4 C 32,9 C 4,5 km/h (1 Bft)
26.05.2018 16:00 26,8 C 17,4 C 26,9 C 33,3 C 33,3 C 6,5 C 42 % 46 % 1020,9 hPa 0,0 l/m 2,4 km/h (1 Bft) NO 45 5 min 12,8 C 33,3 C 0,0 km/h (0 Bft)
26.05.2018 16:05 27,1 C 17,4 C 27,1 C 33,6 C 33,6 C 6,5 C 41 % 46 % 1020,9 hPa 0,0 l/m 1,4 km/h (1 Bft) S-SW 202 5 min 12,7 C 33,6 C 1,6 km/h (1 Bft)
26.05.2018 16:10 26,9 C 17,5 C 27,0 C 33,1 C 33,1 C 6,2 C 41 % 45 % 1020,9 hPa 0,0 l/m 2,6 km/h (1 Bft) N-NO 22 5 min 12,5 C 33,1 C 2,6 km/h (1 Bft)
26.05.2018 16:15 26,7 C 17,5 C 27,1 C 33,0 C 33,0 C 6,3 C 43 % 46 % 1020,9 hPa 0,0 l/m 2,9 km/h (1 Bft) O-NO 67 5 min 13,1 C 33,0 C 0,0 km/h (0 Bft)
26.05.2018 16:20 27,1 C 17,5 C 27,3 C 33,7 C 33,7 C 6,6 C 43 % 45 % 1020,9 hPa 0,0 l/m 2,4 km/h (1 Bft) NO 45 5 min 13,4 C 33,7 C 5,3 km/h (1 Bft)
26.05.2018 16:25 27,1 C 17,5 C 27,4 C 33,4 C 33,4 C 6,3 C 42 % 45 % 1020,9 hPa 0,0 l/m 2,6 km/h (1 Bft) NO 45 5 min 13,1 C 33,4 C 3,7 km/h (1 Bft)
26.05.2018 16:30 26,9 C 17,5 C 27,3 C 33,0 C 33,0 C 6,1 C 42 % 45 % 1020,9 hPa 0,0 l/m 2,7 km/h (1 Bft) NO 45 5 min 12,9 C 33,0 C 0,0 km/h (0 Bft)
26.05.2018 16:35 26,9 C 17,5 C 27,2 C 33,6 C 33,6 C 6,7 C 43 % 45 % 1020,6 hPa 0,0 l/m 1,8 km/h (1 Bft) NO 45 5 min 13,2 C 33,6 C 5,0 km/h (1 Bft)
26.05.2018 16:40 26,7 C 17,6 C 27,1 C 33,4 C 33,4 C 6,7 C 41 % 46 % 1020,6 hPa 0,0 l/m 1,9 km/h (1 Bft) O-NO 67 5 min 12,3 C 33,4 C 6,1 km/h (2 Bft)
26.05.2018 16:45 26,7 C 17,6 C 27,1 C 33,2 C 33,2 C 6,5 C 42 % 46 % 1020,6 hPa 0,0 l/m 2,6 km/h (1 Bft) NO 45 5 min 12,7 C 33,2 C 3,4 km/h (1 Bft)
26.05.2018 16:50 26,7 C 17,6 C 27,0 C 33,8 C 33,8 C 7,1 C 41 % 45 % 1020,6 hPa 0,0 l/m 1,4 km/h (1 Bft) O-NO 67 5 min 12,3 C 33,8 C 3,1 km/h (1 Bft)
26.05.2018 16:55 26,7 C 17,6 C 26,9 C 33,3 C 33,3 C 6,6 C 40 % 43 % 1020,8 hPa 0,0 l/m 1,6 km/h (1 Bft) O 90 5 min 12,0 C 33,3 C 3,4 km/h (1 Bft)
26.05.2018 17:00 26,5 C 17,6 C 26,9 C 33,3 C 33,3 C 6,8 C 41 % 45 % 1020,8 hPa 0,0 l/m 1,8 km/h (1 Bft) O-NO 67 5 min 12,2 C 33,3 C 3,1 km/h (1 Bft)
26.05.2018 17:05 26,5 C 17,6 C 26,7 C 33,3 C 33,3 C 6,8 C 41 % 43 % 1020,8 hPa 0,0 l/m 1,3 km/h (1 Bft) O-NO 67 5 min 12,2 C 33,3 C 0,0 km/h (0 Bft)
26.05.2018 17:10 26,5 C 17,6 C 26,7 C 33,2 C 33,2 C 6,7 C 41 % 44 % 1020,8 hPa 0,0 l/m 1,6 km/h (1 Bft) O-NO 67 5 min 12,2 C 33,2 C 2,4 km/h (1 Bft)
26.05.2018 17:15 26,5 C 17,7 C 26,7 C 33,1 C 33,1 C 6,6 C 41 % 45 % 1020,8 hPa 0,0 l/m 1,4 km/h (1 Bft) O-NO 67 5 min 12,2 C 33,1 C 0,0 km/h (0 Bft)
26.05.2018 17:20 26,6 C 17,7 C 26,6 C 33,5 C 33,5 C 6,9 C 42 % 46 % 1020,8 hPa 0,0 l/m 1,1 km/h (1 Bft) O-NO 67 5 min 12,6 C 33,5 C 1,9 km/h (1 Bft)
26.05.2018 17:25 26,5 C 17,7 C 26,6 C 33,3 C 33,3 C 6,8 C 41 % 44 % 1020,8 hPa 0,0 l/m 1,0 km/h (0 Bft) W-NW 292 5 min 12,2 C 33,3 C 0,0 km/h (0 Bft)
26.05.2018 17:30 26,6 C 17,7 C 26,5 C 33,6 C 33,6 C 7,0 C 41 % 44 % 1020,8 hPa 0,0 l/m 1,0 km/h (0 Bft) SW 225 5 min 12,2 C 33,6 C 0,0 km/h (0 Bft)
26.05.2018 17:35 26,7 C 17,7 C 26,7 C 34,0 C 34,0 C 7,3 C 41 % 46 % 1020,4 hPa 0,0 l/m 0,6 km/h (0 Bft) S 180 5 min 12,3 C 34,0 C 0,0 km/h (0 Bft)
26.05.2018 17:40 26,8 C 17,7 C 26,7 C 34,1 C 34,1 C 7,3 C 40 % 45 % 1020,4 hPa 0,0 l/m 1,3 km/h (1 Bft) NW 315 5 min 12,1 C 34,1 C 3,1 km/h (1 Bft)
26.05.2018 17:45 26,7 C 17,7 C 26,6 C 33,8 C 33,8 C 7,1 C 40 % 44 % 1020,4 hPa 0,0 l/m 1,8 km/h (1 Bft) NO 45 5 min 12,0 C 33,8 C 0,0 km/h (0 Bft)
26.05.2018 17:50 26,7 C 17,7 C 26,5 C 33,1 C 33,1 C 6,4 C 41 % 47 % 1020,4 hPa 0,0 l/m 1,6 km/h (1 Bft) NO 45 5 min 12,3 C 33,1 C 1,8 km/h (1 Bft)
26.05.2018 17:55 26,7 C 17,8 C 26,3 C 32,8 C 32,8 C 6,1 C 42 % 48 % 1020,4 hPa 0,0 l/m 1,4 km/h (1 Bft) N-NO 22 5 min 12,7 C 32,8 C 1,9 km/h (1 Bft)
26.05.2018 18:00 26,7 C 17,8 C 26,1 C 33,0 C 33,0 C 6,3 C 42 % 49 % 1020,4 hPa 0,0 l/m 0,5 km/h (0 Bft) NO 45 5 min 12,7 C 33,0 C 0,0 km/h (0 Bft)
26.05.2018 18:05 26,6 C 17,8 C 26,0 C 33,0 C 33,0 C 6,4 C 42 % 49 % 1020,4 hPa 0,0 l/m 0,6 km/h (0 Bft) O-NO 67 5 min 12,6 C 33,0 C 0,0 km/h (0 Bft)
26.05.2018 18:10 26,5 C 17,8 C 26,0 C 32,7 C 32,7 C 6,2 C 42 % 48 % 1020,4 hPa 0,0 l/m 1,0 km/h (0 Bft) NO 45 5 min 12,5 C 32,7 C 2,4 km/h (1 Bft)
26.05.2018 18:15 26,5 C 17,8 C 26,0 C 32,4 C 32,4 C 5,9 C 41 % 46 % 1020,2 hPa 0,0 l/m 1,9 km/h (1 Bft) O-NO 67 5 min 12,2 C 32,4 C 3,7 km/h (1 Bft)
26.05.2018 18:20 26,3 C 17,9 C 25,9 C 31,7 C 31,7 C 5,4 C 42 % 47 % 1020,2 hPa 0,0 l/m 2,1 km/h (1 Bft) O-NO 67 5 min 12,3 C 31,7 C 1,9 km/h (1 Bft)
26.05.2018 18:25 26,3 C 17,9 C 25,8 C 31,5 C 31,5 C 5,2 C 41 % 45 % 1020,2 hPa 0,0 l/m 2,3 km/h (1 Bft) O-NO 67 5 min 12,0 C 31,5 C 4,3 km/h (1 Bft)
26.05.2018 18:30 26,2 C 17,9 C 25,8 C 31,1 C 31,1 C 4,9 C 41 % 47 % 1020,2 hPa 0,0 l/m 2,7 km/h (1 Bft) O-NO 67 5 min 11,9 C 31,1 C 4,3 km/h (1 Bft)
26.05.2018 18:35 26,3 C 17,9 C 25,8 C 30,9 C 30,9 C 4,6 C 42 % 48 % 1020,3 hPa 0,0 l/m 2,4 km/h (1 Bft) O-NO 67 5 min 12,3 C 30,9 C 0,0 km/h (0 Bft)
26.05.2018 18:40 26,3 C 17,9 C 25,7 C 31,3 C 31,3 C 5,0 C 43 % 49 % 1020,3 hPa 0,0 l/m 1,6 km/h (1 Bft) O-NO 67 5 min 12,7 C 31,3 C 1,6 km/h (1 Bft)
26.05.2018 18:45 26,2 C 18,0 C 25,6 C 31,3 C 31,3 C 5,1 C 44 % 50 % 1020,3 hPa 0,0 l/m 1,8 km/h (1 Bft) N-NO 22 5 min 13,0 C 31,3 C 1,6 km/h (1 Bft)
26.05.2018 18:50 26,1 C 18,0 C 25,6 C 31,2 C 31,2 C 5,1 C 43 % 50 % 1020,3 hPa 0,0 l/m 1,9 km/h (1 Bft) N-NO 22 5 min 12,5 C 31,2 C 0,0 km/h (0 Bft)
26.05.2018 18:55 26,1 C 18,0 C 25,5 C 31,3 C 31,3 C 5,2 C 44 % 50 % 1020,4 hPa 0,0 l/m 1,4 km/h (1 Bft) O-NO 67 5 min 12,9 C 31,3 C 1,9 km/h (1 Bft)
26.05.2018 19:00 26,1 C 18,0 C 25,4 C 31,5 C 31,5 C 5,4 C 44 % 50 % 1020,4 hPa 0,0 l/m 0,5 km/h (0 Bft) NO 45 5 min 12,9 C 31,5 C 2,3 km/h (1 Bft)
26.05.2018 19:05 26,1 C 18,0 C 25,5 C 31,6 C 31,6 C 5,5 C 44 % 50 % 1020,4 hPa 0,0 l/m 1,0 km/h (0 Bft) O-NO 67 5 min 12,9 C 31,6 C 2,7 km/h (1 Bft)
26.05.2018 19:10 26,1 C 18,0 C 25,5 C 31,4 C 31,4 C 5,3 C 44 % 51 % 1020,4 hPa 0,0 l/m 1,0 km/h (0 Bft) N-NO 22 5 min 12,9 C 31,4 C 0,0 km/h (0 Bft)
26.05.2018 19:15 26,1 C 18,1 C 25,4 C 31,4 C 31,4 C 5,3 C 44 % 52 % 1020,6 hPa 0,0 l/m 0,5 km/h (0 Bft) O-NO 67 5 min 12,9 C 31,4 C 0,0 km/h (0 Bft)
26.05.2018 19:20 26,0 C 18,1 C 25,1 C 31,5 C 31,5 C 5,5 C 45 % 52 % 1020,6 hPa 0,0 l/m 0,2 km/h (0 Bft) O-NO 67 5 min 13,1 C 31,5 C 0,0 km/h (0 Bft)
26.05.2018 19:25 26,1 C 18,1 C 25,1 C 31,1 C 31,1 C 5,0 C 46 % 52 % 1020,6 hPa 0,0 l/m 0,2 km/h (0 Bft) NO 45 5 min 13,6 C 31,1 C 0,0 km/h (0 Bft)
26.05.2018 19:30 25,9 C 18,1 C 24,9 C 30,9 C 30,9 C 5,0 C 44 % 52 % 1020,6 hPa 0,0 l/m 0,0 km/h (0 Bft) O-NO 67 5 min 12,7 C 30,9 C 0,0 km/h (0 Bft)
26.05.2018 19:35 25,8 C 18,1 C 24,9 C 30,9 C 30,9 C 5,1 C 44 % 52 % 1020,8 hPa 0,0 l/m 0,0 km/h (0 Bft) NO 45 5 min 12,6 C 30,9 C 0,0 km/h (0 Bft)
26.05.2018 19:40 25,8 C 18,1 C 24,7 C 30,8 C 30,8 C 5,0 C 43 % 53 % 1020,8 hPa 0,0 l/m 0,0 km/h (0 Bft) N-NO 22 5 min 12,3 C 30,8 C 0,0 km/h (0 Bft)
26.05.2018 19:45 25,9 C 18,2 C 24,5 C 30,7 C 30,7 C 4,8 C 43 % 54 % 1020,8 hPa 0,0 l/m 0,0 km/h (0 Bft) NO 45 5 min 12,3 C 30,7 C 0,0 km/h (0 Bft)
26.05.2018 19:50 25,6 C 18,2 C 24,3 C 30,3 C 30,3 C 4,7 C 44 % 54 % 1020,8 hPa 0,0 l/m 0,0 km/h (0 Bft) NO 45 5 min 12,4 C 30,3 C 0,0 km/h (0 Bft)
26.05.2018 19:55 25,5 C 18,2 C 24,1 C 30,0 C 30,0 C 4,5 C 44 % 55 % 1020,7 hPa 0,0 l/m 0,0 km/h (0 Bft) N-NO 22 5 min 12,3 C 30,0 C 0,0 km/h (0 Bft)
26.05.2018 20:00 25,3 C 18,2 C 23,7 C 29,3 C 29,3 C 4,0 C 45 % 55 % 1020,7 hPa 0,0 l/m 0,0 km/h (0 Bft) NO 45 5 min 12,5 C 29,3 C 0,0 km/h (0 Bft)
26.05.2018 20:05 25,1 C 18,2 C 23,6 C 28,9 C 28,9 C 3,8 C 46 % 56 % 1020,7 hPa 0,0 l/m 0,0 km/h (0 Bft) N-NO 22 5 min 12,7 C 28,9 C 0,0 km/h (0 Bft)
26.05.2018 20:10 24,9 C 18,2 C 23,4 C 28,4 C 28,4 C 3,5 C 46 % 56 % 1020,7 hPa 0,0 l/m 0,0 km/h (0 Bft) N-NO 22 5 min 12,5 C 28,4 C 0,0 km/h (0 Bft)
26.05.2018 20:15 24,7 C 18,2 C 23,2 C 28,0 C 28,0 C 3,3 C 47 % 57 % 1020,6 hPa 0,0 l/m 0,0 km/h (0 Bft) N-NO 22 5 min 12,6 C 28,0 C 0,0 km/h (0 Bft)
26.05.2018 20:20 24,5 C 18,2 C 22,8 C 27,4 C 27,4 C 2,9 C 47 % 58 % 1020,6 hPa 0,0 l/m 0,0 km/h (0 Bft) N-NO 22 5 min 12,4 C 27,4 C 0,0 km/h (0 Bft)
26.05.2018 20:25 24,2 C 18,3 C 22,7 C 27,0 C 27,0 C 2,8 C 48 % 59 % 1020,6 hPa 0,0 l/m 0,0 km/h (0 Bft) N-NO 22 5 min 12,5 C 27,0 C 0,0 km/h (0 Bft)
26.05.2018 20:30 24,0 C 18,3 C 22,4 C 26,4 C 26,4 C 2,4 C 49 % 59 % 1020,6 hPa 0,0 l/m 0,0 km/h (0 Bft) N 360 5 min 12,6 C 26,4 C 0,0 km/h (0 Bft)
26.05.2018 20:35 23,9 C 18,4 C 22,2 C 25,8 C 25,8 C 1,9 C 50 % 61 % 1020,6 hPa 0,0 l/m 0,0 km/h (0 Bft) N-NO 22 5 min 12,8 C 25,8 C 0,0 km/h (0 Bft)
26.05.2018 20:40 23,6 C 18,4 C 21,9 C 24,6 C 24,6 C 1,0 C 51 % 62 % 1020,6 hPa 0,0 l/m 0,0 km/h (0 Bft) N-NO 22 5 min 12,9 C 24,6 C 0,0 km/h (0 Bft)
26.05.2018 20:45 23,4 C 18,4 C 21,6 C 23,6 C 23,6 C 0,2 C 52 % 63 % 1020,6 hPa 0,0 l/m 0,0 km/h (0 Bft) NO 45 0 min 13,0 C 23,6 C 0,0 km/h (0 Bft)
26.05.2018 20:50 23,0 C 18,4 C 21,4 C 22,8 C 22,4 C 0,0 C 53 % 63 % 1020,6 hPa 0,0 l/m 0,0 km/h (0 Bft) NO 45 0 min 12,9 C 22,4 C 0,0 km/h (0 Bft)
26.05.2018 20:55 22,7 C 18,4 C 21,1 C 22,4 C 21,8 C 0,0 C 53 % 64 % 1020,4 hPa 0,0 l/m 0,0 km/h (0 Bft) N-NO 22 0 min 12,6 C 21,8 C 0,0 km/h (0 Bft)
26.05.2018 21:00 22,3 C 18,4 C 20,8 C 21,8 C 20,9 C 0,0 C 54 % 64 % 1020,4 hPa 0,0 l/m 0,0 km/h (0 Bft) SO 135 0 min 12,5 C 20,9 C 0,0 km/h (0 Bft)
26.05.2018 21:05 22,1 C 18,4 C 20,7 C 21,5 C 20,4 C 0,0 C 54 % 66 % 1020,4 hPa 0,0 l/m 0,0 km/h (0 Bft) O-SO 112 0 min 12,3 C 20,4 C 0,0 km/h (0 Bft)
26.05.2018 21:10 21,8 C 18,4 C 20,5 C 21,1 C 19,6 C 0,0 C 57 % 67 % 1020,4 hPa 0,0 l/m 0,0 km/h (0 Bft) N-NO 22 0 min 12,9 C 19,6 C 0,0 km/h (0 Bft)
26.05.2018 21:15 21,5 C 18,4 C 20,0 C 20,8 C 19,3 C 0,0 C 58 % 68 % 1020,9 hPa 0,0 l/m 0,0 km/h (0 Bft) N 360 0 min 12,9 C 19,3 C 0,0 km/h (0 Bft)
26.05.2018 21:20 21,1 C 18,4 C 19,7 C 20,3 C 18,7 C 0,0 C 59 % 69 % 1020,9 hPa 0,0 l/m 0,0 km/h (0 Bft) O-NO 67 0 min 12,8 C 18,7 C 0,0 km/h (0 Bft)
26.05.2018 21:25 20,8 C 18,4 C 19,5 C 20,0 C 18,5 C 0,0 C 60 % 69 % 1020,9 hPa 0,0 l/m 0,0 km/h (0 Bft) O-NO 67 0 min 12,7 C 18,5 C 0,0 km/h (0 Bft)
26.05.2018 21:30 20,4 C 18,4 C 19,2 C 19,7 C 18,2 C 0,0 C 62 % 71 % 1020,9 hPa 0,0 l/m 0,0 km/h (0 Bft) NO 45 0 min 12,9 C 18,2 C 0,0 km/h (0 Bft)
26.05.2018 21:35 20,3 C 18,4 C 19,1 C 19,5 C 17,9 C 0,0 C 62 % 71 % 1020,8 hPa 0,0 l/m 0,0 km/h (0 Bft) N 360 0 min 12,8 C 17,9 C 0,0 km/h (0 Bft)
26.05.2018 21:40 19,9 C 18,4 C 18,8 C 19,1 C 17,5 C 0,0 C 63 % 72 % 1020,8 hPa 0,0 l/m 0,0 km/h (0 Bft) NW 315 0 min 12,6 C 17,5 C 0,0 km/h (0 Bft)
26.05.2018 21:45 19,7 C 18,4 C 18,7 C 18,9 C 17,2 C 0,0 C 63 % 73 % 1020,8 hPa 0,0 l/m 0,0 km/h (0 Bft) O-SO 112 0 min 12,5 C 17,2 C 0,0 km/h (0 Bft)
26.05.2018 21:50 19,4 C 18,4 C 18,5 C 18,6 C 17,0 C 0,0 C 65 % 74 % 1020,8 hPa 0,0 l/m 0,0 km/h (0 Bft) O 90 0 min 12,6 C 17,0 C 0,0 km/h (0 Bft)
26.05.2018 21:55 19,2 C 18,4 C 18,2 C 18,4 C 16,9 C 0,0 C 66 % 74 % 1021,1 hPa 0,0 l/m 0,0 km/h (0 Bft) NO 45 0 min 12,7 C 16,9 C 0,0 km/h (0 Bft)
26.05.2018 22:00 18,9 C 18,4 C 18,0 C 18,2 C 16,7 C 0,0 C 67 % 74 % 1021,1 hPa 0,0 l/m 0,0 km/h (0 Bft) NO 45 0 min 12,6 C 16,7 C 0,0 km/h (0 Bft)
26.05.2018 22:05 18,7 C 18,4 C 18,0 C 18,0 C 16,5 C 0,0 C 67 % 75 % 1021,1 hPa 0,0 l/m 0,0 km/h (0 Bft) NW 315 0 min 12,4 C 16,5 C 0,0 km/h (0 Bft)
26.05.2018 22:10 18,4 C 18,5 C 17,7 C 17,6 C 16,1 C 0,0 C 67 % 76 % 1021,1 hPa 0,0 l/m 0,0 km/h (0 Bft) N-NW 337 0 min 12,2 C 16,1 C 0,0 km/h (0 Bft)
26.05.2018 22:15 18,3 C 18,5 C 17,6 C 17,5 C 15,9 C 0,0 C 68 % 76 % 1021,0 hPa 0,0 l/m 0,0 km/h (0 Bft) W-SW 247 0 min 12,3 C 15,9 C 0,0 km/h (0 Bft)
26.05.2018 22:20 18,0 C 18,5 C 17,4 C 17,2 C 15,7 C 0,0 C 68 % 76 % 1021,0 hPa 0,0 l/m 0,0 km/h (0 Bft) N-NO 22 0 min 12,0 C 15,7 C 0,0 km/h (0 Bft)
26.05.2018 22:25 17,8 C 18,5 C 17,3 C 17,1 C 15,6 C 0,0 C 69 % 77 % 1021,0 hPa 0,0 l/m 0,0 km/h (0 Bft) NO 45 0 min 12,0 C 15,6 C 0,0 km/h (0 Bft)
26.05.2018 22:30 17,7 C 18,5 C 17,1 C 16,9 C 15,4 C 0,0 C 69 % 77 % 1021,0 hPa 0,0 l/m 0,0 km/h (0 Bft) N-NO 22 0 min 11,9 C 15,4 C 0,0 km/h (0 Bft)
26.05.2018 22:35 17,5 C 18,5 C 17,1 C 16,7 C 15,2 C 0,0 C 69 % 78 % 1021,1 hPa 0,0 l/m 0,0 km/h (0 Bft) W-NW 292 0 min 11,7 C 15,2 C 0,0 km/h (0 Bft)
26.05.2018 22:40 17,2 C 18,5 C 16,8 C 16,5 C 15,0 C 0,0 C 71 % 78 % 1021,1 hPa 0,0 l/m 0,0 km/h (0 Bft) S-SW 202 0 min 11,9 C 15,0 C 0,0 km/h (0 Bft)
26.05.2018 22:45 17,1 C 18,5 C 16,7 C 16,4 C 14,9 C 0,0 C 71 % 78 % 1021,1 hPa 0,0 l/m 0,0 km/h (0 Bft) SO 135 0 min 11,8 C 14,9 C 0,0 km/h (0 Bft)
26.05.2018 22:50 16,9 C 18,5 C 16,6 C 16,2 C 14,7 C 0,0 C 72 % 79 % 1021,1 hPa 0,0 l/m 0,0 km/h (0 Bft) O-NO 67 0 min 11,8 C 14,7 C 0,0 km/h (0 Bft)
26.05.2018 22:55 16,8 C 18,5 C 16,4 C 16,1 C 14,6 C 0,0 C 73 % 79 % 1021,0 hPa 0,0 l/m 0,0 km/h (0 Bft) NW 315 0 min 11,9 C 14,6 C 0,0 km/h (0 Bft)
26.05.2018 23:00 16,5 C 18,5 C 16,3 C 15,8 C 14,3 C 0,0 C 73 % 80 % 1021,0 hPa 0,0 l/m 0,0 km/h (0 Bft) W 270 0 min 11,6 C 14,3 C 0,0 km/h (0 Bft)
26.05.2018 23:05 16,5 C 18,5 C 16,1 C 15,7 C 14,2 C 0,0 C 74 % 80 % 1021,0 hPa 0,0 l/m 0,0 km/h (0 Bft) NW 315 0 min 11,8 C 14,2 C 0,0 km/h (0 Bft)
26.05.2018 23:10 16,3 C 18,5 C 16,0 C 15,5 C 14,0 C 0,0 C 74 % 81 % 1021,0 hPa 0,0 l/m 0,0 km/h (0 Bft) S-SW 202 0 min 11,7 C 14,0 C 0,0 km/h (0 Bft)
26.05.2018 23:15 16,0 C 18,5 C 15,9 C 15,3 C 13,9 C 0,0 C 74 % 81 % 1021,1 hPa 0,0 l/m 0,0 km/h (0 Bft) W 270 0 min 11,4 C 13,9 C 0,0 km/h (0 Bft)
26.05.2018 23:20 15,9 C 18,5 C 15,6 C 15,2 C 13,7 C 0,0 C 74 % 81 % 1021,1 hPa 0,0 l/m 0,0 km/h (0 Bft) S-SO 157 0 min 11,3 C 13,7 C 0,0 km/h (0 Bft)
26.05.2018 23:25 15,7 C 18,5 C 15,6 C 15,0 C 13,7 C 0,0 C 75 % 81 % 1021,1 hPa 0,0 l/m 0,0 km/h (0 Bft) O-SO 112 0 min 11,3 C 13,7 C 0,0 km/h (0 Bft)
26.05.2018 23:30 15,6 C 18,4 C 15,5 C 14,9 C 13,6 C 0,0 C 76 % 82 % 1021,1 hPa 0,0 l/m 0,0 km/h (0 Bft) S-SW 202 0 min 11,4 C 13,6 C 0,0 km/h (0 Bft)
26.05.2018 23:35 15,5 C 18,4 C 15,4 C 14,8 C 13,5 C 0,0 C 76 % 82 % 1021,3 hPa 0,0 l/m 0,0 km/h (0 Bft) S 180 0 min 11,3 C 13,5 C 0,0 km/h (0 Bft)
26.05.2018 23:40 15,3 C 18,4 C 15,2 C 14,6 C 13,2 C 0,0 C 76 % 82 % 1021,3 hPa 0,0 l/m 0,0 km/h (0 Bft) W-NW 292 0 min 11,1 C 13,2 C 0,0 km/h (0 Bft)
26.05.2018 23:45 15,2 C 18,4 C 15,0 C 14,5 C 13,1 C 0,0 C 77 % 82 % 1021,3 hPa 0,0 l/m 0,0 km/h (0 Bft) N-NW 337 0 min 11,2 C 13,1 C 0,0 km/h (0 Bft)
26.05.2018 23:50 15,1 C 18,4 C 14,9 C 14,4 C 13,0 C 0,0 C 77 % 83 % 1021,3 hPa 0,0 l/m 0,0 km/h (0 Bft) W 270 0 min 11,1 C 13,0 C 0,0 km/h (0 Bft)
26.05.2018 23:55 14,9 C 18,4 C 14,8 C 14,3 C 13,0 C 0,0 C 77 % 83 % 1021,2 hPa 0,0 l/m 0,0 km/h (0 Bft) W 270 0 min 10,9 C 13,0 C 0,0 km/h (0 Bft)
_ Min-Zeit 06:10 09:15 05:05 05:50 04:40 00:00 16:55 16:55 00:00 - 00:00 - - - 06:10 04:40 00:00
Minimum _ 9,2 C 16,3 C 10,6 C 9,3 C 9,2 C 0,0 C 40 % 43 % 1019,9 hPa - 0,0 km/h (0 Bft) - - - 7,0 C 9,2 C 0,0 km/h (0 Bft)
_ Max-Zeit 15:35 22:10 14:05 15:45 15:45 08:10 07:20 04:05 09:15 00:00 11:40 - - 07:00 11:25 15:45 11:45
Maximum _ 27,4 C 18,5 C 27,7 C 34,3 C 34,3 C 13,3 C 88 % 89 % 1022,1 hPa 0,0 l/m 5,8 km/h
NO (2 Bft)
- - 5 min 15,8 C 34,3 C 11,9 km/h
W (2 Bft)
Durchschnitt _ 19,4 C 17,3 C 19,0 C 23,0 C 22,6 C 3,8 C 65 % 70 % 1021,0 hPa #0,0 l/m 0,9 km/h (0 Bft) O-NO - #13:25 h 11,8 C 22,6 C 1,2 km/h (1 Bft)
2018 www.wetterstation-wechselburg.de